Saltar para o conteúdo principal

Viseu (Aeródromo)

ID 1200559 · 40.7265, -7.8875 mapa

Última leitura · 2026-05-09 19:00 (Europe/Lisbon)

Temperatura
11.3 °C
Humidade
91 %
Pressão
1,007.4 hPa
Precipitação
0.4 mm
Radiação
Velocidade do vento
15.8 km/h
Direcção do vento
SW · Sudoeste

Histórico de 24 horas

Hora (Europe/Lisbon) Temperatura Humidade Pressão Chuva Vento Direcção
2026-05-09 19:00 11.3 °C 91 % 1,007.4 0.4 mm 15.8 km/h SW
2026-05-09 18:00 11.3 °C 88 % 1,006.8 0.6 mm 13.7 km/h SW
2026-05-09 17:00 12.1 °C 83 % 1,005.8 0.5 mm 11.5 km/h W
2026-05-09 16:00 13.1 °C 83 % 1,004.8 0.0 mm 7.2 km/h W
2026-05-09 15:00 13.8 °C 80 % 1,004.0 0.0 mm 19.4 km/h S
2026-05-09 14:00 12.7 °C 84 % 1,004.6 0.7 mm 8.3 km/h SE
2026-05-09 13:00 12.4 °C 84 % 1,004.9 0.2 mm 6.8 km/h SE
2026-05-09 12:00 11.5 °C 90 % 1,005.4 0.2 mm 13.3 km/h SE
2026-05-09 11:00 10.9 °C 87 % 1,005.4 1.4 mm 10.1 km/h S
2026-05-09 10:00 12.0 °C 75 % 1,005.0 0.1 mm 18.0 km/h SE
2026-05-09 09:00 11.9 °C 77 % 1,005.2 0.0 mm 10.4 km/h SE
2026-05-09 08:00 11.1 °C 80 % 1,005.4 0.0 mm 10.8 km/h SE
2026-05-09 07:00 9.8 °C 84 % 1,005.9 0.0 mm 8.6 km/h E
2026-05-09 06:00 10.7 °C 80 % 1,006.0 0.0 mm 4.3 km/h E
2026-05-09 05:00 10.8 °C 80 % 1,006.3 0.0 mm 11.5 km/h S
2026-05-09 04:00 10.8 °C 84 % 1,006.4 0.0 mm 18.0 km/h S
2026-05-09 03:00 11.2 °C 81 % 1,007.0 0.1 mm 11.9 km/h S
2026-05-09 02:00 10.0 °C 91 % 1,007.8 0.0 mm 3.2 km/h SE
2026-05-09 01:00 10.9 °C 84 % 1,007.9 0.3 mm 4.7 km/h S
2026-05-09 00:00 13.1 °C 60 % 1,007.3 0.0 mm 10.8 km/h SE
2026-05-08 23:00 13.2 °C 58 % 1,007.3 0.0 mm 14.8 km/h E
2026-05-08 22:00 12.4 °C 63 % 1,007.7 0.0 mm 13.0 km/h E
2026-05-08 21:00 12.4 °C 67 % 1,007.7 0.0 mm 11.5 km/h E
2026-05-08 20:00 13.9 °C 63 % 1,007.6 0.0 mm 6.1 km/h E